Time,TemperatureF,DewpointF,PressureIn,WindDirection,WindDirectionDegrees,WindSpeedMPH,WindSpeedGustMPH,Humidity,HourlyPrecipIn,Conditions,Clouds,dailyrainin,SoftwareType,DateUTC
2013-03-10 00:31:00,31.0,19.0,30.32,North,0,0.0,7.0,60,0.00,,,-99.99,,2013-03-10 08:31:00,
2013-03-10 00:42:00,31.0,19.0,30.32,North,0,0.0,7.0,60,0.00,,,-99.99,,2013-03-10 08:42:00,
2013-03-10 01:31:00,29.0,18.0,30.34,North,0,0.0,4.0,64,0.00,,,-99.99,,2013-03-10 09:31:00,
2013-03-10 01:41:00,29.0,18.0,30.34,North,0,0.0,4.0,64,0.00,,,-99.99,,2013-03-10 09:41:00,
2013-03-10 03:32:00,28.0,19.0,30.34,North,-999,0.0,0.0,68,0.00,,,-99.99,,2013-03-10 10:32:00,
2013-03-10 03:41:00,28.0,19.0,30.34,North,-999,0.0,0.0,68,0.00,,,-99.99,,2013-03-10 10:41:00,
2013-03-10 04:31:00,29.0,18.0,30.34,North,0,0.0,1.0,62,0.00,,,-99.99,,2013-03-10 11:31:00,
2013-03-10 04:42:00,29.0,18.0,30.34,North,0,0.0,1.0,62,0.00,,,-99.99,,2013-03-10 11:42:00,
2013-03-10 05:31:00,28.0,15.0,30.34,ENE,70,2.0,4.0,58,0.00,,,-99.99,,2013-03-10 12:31:00,
2013-03-10 05:42:00,28.0,15.0,30.34,ENE,70,2.0,4.0,58,0.00,,,-99.99,,2013-03-10 12:42:00,
2013-03-10 06:31:00,28.0,14.0,30.34,North,10,1.0,5.0,55,0.00,,,-99.99,,2013-03-10 13:31:00,
2013-03-10 06:41:00,28.0,14.0,30.34,North,10,1.0,5.0,55,0.00,,,-99.99,,2013-03-10 13:41:00,
2013-03-10 07:32:00,27.0,13.0,30.34,ESE,110,2.0,4.0,55,0.00,,,-99.99,,2013-03-10 14:32:00,
2013-03-10 07:41:00,27.0,13.0,30.34,ESE,110,2.0,4.0,55,0.00,,,-99.99,,2013-03-10 14:41:00,
2013-03-10 08:32:00,29.0,13.0,30.36,NE,40,1.0,4.0,51,0.00,,,-99.99,,2013-03-10 15:32:00,
2013-03-10 08:42:00,29.0,13.0,30.36,NE,40,1.0,4.0,51,0.00,,,-99.99,,2013-03-10 15:42:00,
2013-03-10 11:21:00,38.0,11.0,30.39,NNE,30,5.0,9.0,32,0.00,,,-99.99,,2013-03-10 18:21:00,
2013-03-10 11:31:00,38.0,11.0,30.39,NNE,30,5.0,9.0,32,0.00,,,-99.99,,2013-03-10 18:31:00,
2013-03-10 11:41:00,38.0,11.0,30.39,NNE,30,5.0,9.0,32,0.00,,,-99.99,,2013-03-10 18:41:00,
2013-03-10 12:21:00,41.0,12.0,30.39,NNE,20,4.0,6.0,30,0.00,,,-99.99,,2013-03-10 19:21:00,
2013-03-10 12:31:00,41.0,12.0,30.39,NNE,20,4.0,6.0,30,0.00,,,-99.99,,2013-03-10 19:31:00,
2013-03-10 12:41:00,41.0,12.0,30.39,NNE,20,4.0,6.0,30,0.00,,,-99.99,,2013-03-10 19:41:00,
2013-03-10 13:22:00,44.0,4.0,30.36,NNE,30,5.0,9.0,19,0.00,,,-99.99,,2013-03-10 20:22:00,
2013-03-10 13:32:00,44.0,4.0,30.36,NNE,30,5.0,9.0,19,0.00,,,-99.99,,2013-03-10 20:32:00,
2013-03-10 13:42:00,44.0,4.0,30.36,NNE,30,5.0,9.0,19,0.00,,,-99.99,,2013-03-10 20:42:00,
2013-03-10 14:22:00,44.0,6.0,30.33,NNE,30,3.0,9.0,20,0.00,,,-99.99,,2013-03-10 21:22:00,
2013-03-10 14:32:00,44.0,6.0,30.33,NNE,30,3.0,9.0,20,0.00,,,-99.99,,2013-03-10 21:32:00,
2013-03-10 14:42:00,44.0,6.0,30.33,NNE,30,3.0,9.0,20,0.00,,,-99.99,,2013-03-10 21:42:00,
2013-03-10 15:22:00,45.0,6.0,30.31,NE,40,3.0,6.0,20,0.00,,,-99.99,,2013-03-10 22:22:00,
2013-03-10 15:32:00,45.0,6.0,30.31,NE,40,3.0,6.0,20,0.00,,,-99.99,,2013-03-10 22:32:00,
2013-03-10 15:42:00,45.0,6.0,30.31,NE,40,3.0,6.0,20,0.00,,,-99.99,,2013-03-10 22:42:00,
2013-03-10 16:22:00,44.0,9.0,30.31,NNE,30,3.0,8.0,23,0.00,,,-99.99,,2013-03-10 23:22:00,
2013-03-10 16:32:00,44.0,9.0,30.31,NNE,30,3.0,8.0,23,0.00,,,-99.99,,2013-03-10 23:32:00,
2013-03-10 16:42:00,44.0,9.0,30.31,NNE,30,3.0,8.0,23,0.00,,,-99.99,,2013-03-10 23:42:00,
2013-03-10 17:22:00,45.0,7.0,30.29,NNE,30,1.0,5.0,21,0.00,,,-99.99,,2013-03-11 00:22:00,
2013-03-10 17:32:00,45.0,7.0,30.29,NNE,30,1.0,5.0,21,0.00,,,-99.99,,2013-03-11 00:32:00,
2013-03-10 17:42:00,45.0,7.0,30.29,NNE,30,1.0,5.0,21,0.00,,,-99.99,,2013-03-11 00:42:00,
2013-03-10 18:22:00,45.0,8.0,30.28,NE,50,2.0,3.0,22,0.00,,,-99.99,,2013-03-11 01:22:00,
2013-03-10 18:32:00,45.0,8.0,30.28,NE,50,2.0,3.0,22,0.00,,,-99.99,,2013-03-11 01:32:00,
2013-03-10 18:42:00,45.0,8.0,30.28,NE,50,2.0,3.0,22,0.00,,,-99.99,,2013-03-11 01:42:00,
2013-03-10 19:22:00,38.0,8.0,30.30,North,-999,0.0,0.0,28,0.00,,,-99.99,,2013-03-11 02:22:00,
2013-03-10 19:32:00,38.0,8.0,30.30,North,-999,0.0,0.0,28,0.00,,,-99.99,,2013-03-11 02:32:00,
2013-03-10 19:42:00,38.0,8.0,30.30,North,-999,0.0,0.0,28,0.00,,,-99.99,,2013-03-11 02:42:00,
2013-03-10 20:22:00,35.0,5.0,30.30,North,-999,0.0,0.0,28,0.00,,,-99.99,,2013-03-11 03:22:00,
2013-03-10 20:32:00,35.0,5.0,30.30,North,-999,0.0,0.0,28,0.00,,,-99.99,,2013-03-11 03:32:00,
2013-03-10 20:42:00,35.0,5.0,30.30,North,-999,0.0,0.0,28,0.00,,,-99.99,,2013-03-11 03:42:00,
2013-03-10 21:22:00,36.0,2.0,30.33,North,-999,0.0,0.0,23,0.00,,,-99.99,,2013-03-11 04:22:00,
2013-03-10 21:32:00,36.0,2.0,30.33,North,-999,0.0,0.0,23,0.00,,,-99.99,,2013-03-11 04:32:00,
2013-03-10 22:22:00,36.0,1.0,30.34,North,0,0.0,1.0,22,0.00,,,-99.99,,2013-03-11 05:22:00,
2013-03-10 22:32:00,36.0,1.0,30.34,North,0,0.0,1.0,22,0.00,,,-99.99,,2013-03-11 05:32:00,
2013-03-10 23:22:00,37.0,2.0,30.34,North,-999,0.0,0.0,22,0.00,,,-99.99,,2013-03-11 06:22:00,
2013-03-10 23:32:00,37.0,2.0,30.34,North,-999,0.0,0.0,22,0.00,,,-99.99,,2013-03-11 06:32:00,